Regional Weather Roundup
Issued by NWS San Angelo, TX

Home | Current Version | Previous Version | Text Only | Print | Product List | Glossary On
Versions: 1 2 3 4 5 6 7 8 9 10 11 12 13 14 15 16 17 18 19 20 21 22 23 24 25 26 27 28 29 30 31 32 33 34 35 36 37 38 39 40 41 42 43 44 45 46 47 48 49 50
000
ASUS44 KSJT 191402
RWRSJT
WEST CENTRAL TEXAS REGIONAL WEATHER ROUNDUP
NATIONAL WEATHER SERVICE SAN ANGELO TX
900 AM CDT FRI SEP 19 2014

NOTE: "FAIR" INDICATES FEW OR NO CLOUDS BELOW 12,000 FEET WITH NO
SIGNIFICANT WEATHER AND/OR OBSTRUCTIONS TO VISIBILITY.

TXZ049-054-064>066-071>073-076>078-098-099-113-114-127-128-139-140-
154-155-168>170-191500
...LOCATIONS ACROSS WEST CENTRAL TEXAS...

CITY           SKY/WX    TMP DP  RH WIND       PRES   REMARKS
SAN ANGELO     CLOUDY    70  69  97 E8        29.97R
ABILENE        CLOUDY    70  67  90 E6        29.99R
DYESS AFB      CLOUDY    70  64  79 E5        29.98R
JUNCTION       CLOUDY    73  69  87 E9        29.96R
SWEETWATER     CLOUDY    69  69 100 NE3       30.04S
BROWNWOOD      NOT AVBL
COLEMAN        CLOUDY    71  69  92 E3        29.98R
SONORA         CLOUDY    72  72 100 CALM      30.00R
OZONA          CLOUDY    72  68  88 CALM      29.98S
BRADY          NOT AVBL
$$

TEXAS PANHANDLE/OKLAHOMA PANHANDLE

CITY           SKY/WX    TMP DP  RH WIND       PRES   REMARKS
AMARILLO       PTSUNNY   65  63  93 SE8       30.06R
BORGER         SUNNY     68  62  81 SW6       30.04R
CANADIAN       CLOUDY    66  64  94 CALM      30.01S
DALHART        PTSUNNY   66  62  87 S6        30.06S
DUMAS          CLOUDY    63  62  96 SE7       30.06R FOG
GUYMON         NOT AVBL
HEREFORD       RAIN      67  66  99 SE6       30.07R
PAMPA          SUNNY     64  62  93 S6        30.06R
PERRYTON       SUNNY     65  61  86 S8        30.03R
$$

SOUTHERN PANHANDLE/SOUTH PLAINS/ROLLING PLAINS

CITY           SKY/WX    TMP DP  RH WIND       PRES   REMARKS
LUBBOCK        CLOUDY    67  65  93 E8        30.03R
SNYDER         CLOUDY    68  67  98 E7        30.01S
CHILDRESS      FOG       71  70  96 E6        30.01R VSB<1/4
SEMINOLE       LGT RAIN  67  67  99 CALM      30.02S
$$

PERMIAN BASIN

CITY           SKY/WX    TMP DP  RH WIND       PRES   REMARKS
MIDLAND        LGT RAIN  69  67  93 E8        30.00R
ODESSA         RAIN      68  66  93 SE9       30.01R FOG
WINK           NOT AVBL
$$

FAR WEST/SOUTHWEST MOUNTAINS/TRANS PECOS

CITY           SKY/WX    TMP DP  RH WIND       PRES   REMARKS
ALPINE         CLOUDY    66  63  90 W3        30.11R
DRYDEN           N/A     77  71  82 E6        29.92R
EL PASO        PTSUNNY   67  65  93 CALM      30.00R
FORT STOCKTON  RAIN      70  68  93 E10       29.99R
GUADALUPE PASS FOG       62  62 100 E5        30.04S VSB 1/4
MARFA          CLOUDY    66  64  94 S6        30.10R
PECOS          NOT AVBL
$$

DALLAS/FORT WORTH METROPLEX

CITY           SKY/WX    TMP DP  RH WIND       PRES   REMARKS
DFW AIRPORT    PTSUNNY   73  67  81 SE5       29.96R
FTW MEACHAM    MOSUNNY   73  68  84 E7        29.95S
DAL-EXECUTIVE  CLOUDY    72  69  90 E7        29.96R FOG
GRAND PRAIRIE  CLOUDY    72  72 100 MISG      29.97
ADDISON        PTSUNNY   72  68  88 E6        29.96S FOG
MESQUITE       NOT AVBL
LANCASTER      CLOUDY    71  68  90 E5        29.97R
$$

NORTH CENTRAL TEXAS

CITY           SKY/WX    TMP DP  RH WIND       PRES   REMARKS
SHRMAN/DENISON SUNNY     72  67  87 E6        29.99R
GAINESVILLE    MOSUNNY   71  68  90 E8        30.00R
BRIDGEPORT     CLOUDY    70  70 100 SE3       29.98R FOG
DENTON         SUNNY     73  67  81 E6        29.96R
WAXAHACHIE     CLOUDY    70  69  97 E6        29.97R FOG
GRANBURY       NOT AVBL
$$

WESTERN NORTH TEXAS

CITY           SKY/WX    TMP DP  RH WIND       PRES   REMARKS
WICHITA FALLS  SUNNY     71  70  96 E5        29.96R FOG
VERNON         CLOUDY    71  69  94 SE5       29.99R VSB<1/4
BRECKENRIDGE   NOT AVBL
COMANCHE       CLOUDY    71  71 100 CALM      29.97R
$$

CENTRAL AND SOUTH CENTRAL TEXAS

CITY           SKY/WX    TMP DP  RH WIND       PRES   REMARKS
AUSTIN/BERGSTM CLOUDY    76  74  93 NE6       29.91R
WACO           LGT RAIN  70  70 100 NE3       29.95R VSB 1/4
HILLSBORO      NOT AVBL
TEMPLE         CLOUDY    72  68  88 NE6       29.94R
KILLEEN-GRAY   CLOUDY    73  72  94 NE7       29.93R FOG
FORT HOOD      CLOUDY    74  71  91 NE3       29.95R
GEORGETOWN     FOG       73  72  94 NE8       29.94R VSB 1/4
LAGO VISTA     FOG       73  72  94 NE7       29.95R VSB<1/4
SAN MARCOS     CLOUDY    75  72  88 NE5       29.92R FOG
NEW BRAUNFELS  CLOUDY    78  75  90 NE6       29.90R FOG
RANDOLPH AFB   CLOUDY    77  76  97 E6        29.92R
SAN ANTONIO    PTSUNNY   79  75  87 SE7       29.91R
STINSON        CLOUDY    78  76  93 E5        29.89R
PLEASANTON     NOT AVBL
LA GRANGE      PTSUNNY   78  76  94 NE3       29.90R
GIDDINGS       NOT AVBL
$$

EAST TEXAS

CITY           SKY/WX    TMP DP  RH WIND       PRES   REMARKS
PARIS          CLOUDY    72  64  78 E9        29.99S
CLARKSVILLE    NOT AVBL
TYLER          SUNNY     72  69  90 NE6       29.97R
LONGVIEW       SUNNY     74  69  85 CALM      29.96S
PALESTINE      CLOUDY    74  72  92 CALM      29.96R
NACOGDOCHES    PTSUNNY   73  70  88 E7        29.96R
$$

TEXAS HILL COUNTRY AND EDWARDS PLATEAU

CITY           SKY/WX    TMP DP  RH WIND       PRES   REMARKS
LLANO          NOT AVBL
HORSESHOE BAY  CLOUDY    74  74 100 CALM      29.94R FOG
KERRVILLE      RAIN      74  72  93 CALM      29.95R
FREDERICKSBRG  CLOUDY    73  72  95 E5        29.95R FOG
ROCKSPRINGS    NOT AVBL
HONDO          CLOUDY    78  75  90 S8        29.93R
UVALDE         CLOUDY    75  75  99 E5        29.91R FOG
DEL RIO        CLOUDY    76  72  87 E8        29.87R
$$

SOUTHEAST TEXAS

CITY           SKY/WX    TMP DP  RH WIND       PRES   REMARKS
COLLEGE STN    CLOUDY    74  73  97 E9        29.93R
CALDWELL       NOT AVBL
CROCKETT       NOT AVBL
BRENHAM        CLOUDY    76  74  95 E3        29.93R
HUNTSVILLE     CLOUDY    75  73  93 E3        29.93S
CONROE         RAIN      73  72  96 CALM      29.94R FOG
HOUSTON BUSH   RAIN      75  74  96 E5        29.92R FOG
HOUSTON HOBBY  LGT RAIN  75  74  96 S3        29.93R
PERLAND        HVY RAIN  76  74  93 S3        29.95R FOG
WHARTON        RAIN      75  74  96 NE5       29.91R
$$

THE UPPER TEXAS COAST

CITY           SKY/WX    TMP DP  RH WIND       PRES   REMARKS
ORANGE         CLOUDY   N/A N/A N/A E5        29.94R
PORT ARTHUR    PTSUNNY   78  74  87 E9        29.91R
GALVESTON      CLOUDY    77  74  90 S9        29.93R
ANGLETON         N/A    N/A N/A N/A MISG      29.91R
BAY CITY       CLOUDY   N/A N/A N/A E6        29.90R
$$

TEXAS COASTAL BEND, RIO GRANDE PLAINS DEEP SOUTH TEXAS

CITY           SKY/WX    TMP DP  RH WIND       PRES   REMARKS
VICTORIA       PTSUNNY   79  77  94 NE8       29.89R
BEEVILLE       FAIR      78  78  99 NE3       29.88R
ROCKPORT       SUNNY     85  77  77 SE3       29.86R
PORT ARANSAS   MOSUNNY   85  77  77 S6        29.85S
PORT LAVACA    SUNNY     79  78  95 NE6       29.88R
CORPUS CHRISTI PTSUNNY   82  78  88 CALM      29.86R
KINGSVILLE NAS PTSUNNY   81  80  97 NE3       29.86R
COTULLA        CLOUDY    80  75  84 SE6       29.88R
LAREDO         CLOUDY    80  78  94 SE6       29.88R
BROWNSVILLE    MOSUNNY   82  79  90 S6        29.84R
PORT ISABEL    MOSUNNY   83  78  85 S6        29.84R HAZE
HEBBRONVILLE   NOT AVBL
MCALLEN        PTSUNNY   81  78  91 S8        29.85R
WESLACO        PTSUNNY   83  76  81 SE9       29.84R HAZE
FALFURRIAS     PTSUNNY  N/A N/A N/A CALM      29.85R
EDINBURG       PTSUNNY   82  78  89 SE5       29.85R FOG
$$



USA.gov is the U.S. government's official web portal to all federal, state and local government web resources and services.